This demonstration page uses our WeatherBlox Daily Observations layout. Learn more.

41.55636, -103.73856

Hourly Observations for October 16, 2016

Temp ( °F °C ) Dew Point ( °F °C ) Humidity (%) Winds ( mph kmh ) Pressure ( in mb ) Visibility ( mi km ) Precip ( " mm )
12:53 am 00:53 Clear 54 12.2 39 3.9 57 57 ESE 14 22 29.69 1005 10 16.0934 0 0
1:53 am 01:53 Clear 50 10 39 3.9 66 66 E 10 17 29.67 1005 10 16.0934 0 0
2:53 am 02:53 Clear 50 10 40 4.4 68 68 E 12 19 29.65 1004 10 16.0934 0 0
3:53 am 03:53 Clear 50 10 41 5 71 71 VRB 6 9 29.62 1003 10 16.0934 0 0
4:53 am 04:53 Clear 49 9.4 41 5 74 74 E 9 15 29.6 1002 10 16.0934 0 0
5:53 am 05:53 Clear 48 8.9 41 5 77 77 ESE 10 17 29.6 1002 10 16.0934 0 0
6:53 am 06:53 Clear 47 8.3 42 5.6 83 83 ESE 10 17 29.61 1003 10 16.0934 0 0
7:53 am 07:53 Sunny 47 8.3 42 5.6 83 83 ESE 6 9 29.62 1003 10 16.0934 0 0
8:53 am 08:53 Sunny 56 13.3 45 7.2 67 67 E 9 15 29.62 1003 10 16.0934 0 0
9:53 am 09:53 Sunny 64 17.8 43 6.1 46 46 E 9 15 29.59 1002 10 16.0934 0 0
10:53 am 10:53 Sunny 66 18.9 44 6.7 45 45 ESE 7 11 29.58 1002 10 16.0934 0 0
11:53 am 11:53 Sunny 73 22.8 42 5.6 33 33 Calm 29.57 1001 10 16.0934 0 0
12:53 pm 12:53 Sunny 77 25 33 0.6 20 20 WNW 5 7 29.54 1000 10 16.0934 0 0
1:53 pm 13:53 Sunny 79 26.1 32 0 18 18 NW 7 11 29.53 1000 10 16.0934 0 0
2:53 pm 14:53 Sunny 77 25 34 1.1 21 21 WNW 21 33 29.55 1001 10 16.0934 0 0
3:53 pm 15:53 Sunny 74 23.3 34 1.1 23 23 WNW 24 39 29.59 1002 10 16.0934 0 0
4:53 pm 16:53 Sunny 70 21.1 31 -0.6 23 23 NW 14 22 29.63 1003 10 16.0934 0 0
5:53 pm 17:53 Sunny 67 19.4 30 -1.1 25 25 NW 17 28 29.64 1004 10 16.0934 0 0
6:53 pm 18:53 Clear 63 17.2 30 -1.1 29 29 WNW 12 19 29.68 1005 10 16.0934 0 0
7:53 pm 19:53 Clear 59 15 30 -1.1 33 33 WNW 12 19 29.68 1005 10 16.0934 0 0
8:53 pm 20:53 Clear 55 12.8 31 -0.6 40 40 undefined N/A 29.67 1005 10 16.0934 0 0
9:53 pm 21:53 Clear 50 10 31 -0.6 48 48 S 3 6 29.65 1004 10 16.0934 0 0
10:53 pm 22:53 Clear 50 10 32 0 50 50 N 5 7 29.61 1003 10 16.0934 0 0
11:53 pm 23:53 Clear 49 9.4 32 0 52 52 Calm 29.59 1002 10 16.0934 0 0

Powered by AerisWeather